Regional Weather Roundup
Issued by NWS

Home | Current Version | Previous Version | Graphics & Text | Print | Product List | Glossary On
Versions: 1 2 3 4 5 6 7 8 9 10 11 12 13 14 15 16 17 18 19 20 21 22 23 24 25 26 27 28 29 30 31 32 33 34 35 36 37 38 39 40 41 42 43 44 45 46 47 48 49 50
000
ASUS43 KLSX 301059
RWRMO

WEATHER SUMMARY FOR MISSOURI
NATIONAL WEATHER SERVICE SPRINGFIELD MO
600 AM CDT TUE SEP 30 2014

NOTE: "FAIR" INDICATES FEW OR NO CLOUDS BELOW 12,000 FEET WITH NO
       SIGNIFICANT WEATHER AND/OR OBSTRUCTIONS TO VISIBILITY.
       CURRENT SKY AND/OR WEATHER CONDITIONS ARE NOT AVAILABLE FOR
       CHILLICOTHE AND FARMINGTON.

MOZ001>031-035>038-043-044-053-054-301200-
...NORTHERN AND WESTERN MISSOURI...

CITY           SKY/WX    TMP DP  RH WIND       PRES   REMARKS
KANSAS CTY INT MOCLDY    63  58  83 SE8       29.92S
KANSAS C DTWN  PTCLDY    65  59  81 CALM      29.92S
LEE`S SUMMIT   PTCLDY    65  57  75 S5        29.94S
ST JOSEPH      MOCLDY    57  56  96 CALM      29.91F
CHILLICOTHE      N/A     57  54  89 CALM      29.95S
KIRKSVILLE     CLEAR     59  58  96 NE6       29.97S FOG

$$
MOZ066>068-077>081-088>096-101>105-301200-
...SOUTHWEST MISSOURI...

CITY           SKY/WX    TMP DP  RH WIND       PRES   REMARKS
SPRINGFIELD    CLEAR     60  56  86 S5        29.96S
JOPLIN         CLEAR     60  58  92 SE5       29.95S

$$
MOZ032>034-039>042-045>050-055>058-069>072-301200-
...CENTRAL MISSOURI...

CITY           SKY/WX    TMP DP  RH WIND       PRES   REMARKS
COLUMBIA       CLEAR     62  56  80 S3        29.95F
JEFFERSON CITY MOCLDY    55  54  96 SE3       29.95S FOG
ROLLA          CLEAR     59  56  89 S7        29.95F
SEDALIA        CLEAR     63  57  81 S3        29.95S
OSAGE BEACH    CLEAR     55  52  88 CALM      29.95S

$$
MOZ051-052-059>065-301200-
...EAST CENTRAL MISSOURI...

CITY           SKY/WX    TMP DP  RH WIND       PRES   REMARKS
ST LOUIS INTL  CLEAR     64  58  80 CALM      29.96S
SPIRIT OF STL  CLEAR     54  54 100 CALM      29.95S
ST CHARLES     FOG       55  55 100 SW3       29.95S VSB<1/4

$$
MOZ072>076-082>087-097>100-106>115-301200-
...SOUTH CENTRAL AND SOUTHEAST MISSOURI...

CITY           SKY/WX    TMP DP  RH WIND       PRES   REMARKS
CAPE GIRARDEAU FOG       51  50  96 CALM      29.96R VSB 1/2
FARMINGTON     CLEAR     54  52  94 CALM      29.99S
POPLAR BLUFF   CLEAR     57  53  86 NW3       29.95R
WEST PLAINS    CLEAR     56  53  90 CALM      30.00S FOG

$$


USA.gov is the U.S. government's official web portal to all federal, state and local government web resources and services.